Terminal Aerodrome Forecast
Issued by NWS

Home | Current Version | Previous Version | Graphics & Text | Print | Product List | Glossary On
Versions: 1 2 3 4 5 6 7 8 9 10 11 12 13 14 15 16 17 18 19 20 21 22 23 24 25 26 27 28 29 30 31 32 33
000
FTUS43 KLOT 300538
TAFDPA
TAF
KDPA 300538Z 3006/3106 28007KT P6SM FEW060
     FM301700 27011G17KT P6SM BKN070
     FM310000 21006KT P6SM BKN070
     FM310500 23015KT P6SM BKN100 WS015/25050KT=

USA.gov is the U.S. government's official web portal to all federal, state and local government web resources and services.